KUIPER-00439

导读 | 豆包AI

KUIPER-00439(NORAD编号:68941)是美国亚马逊柯伊伯(Project Kuiper)卫星互联网星座的一颗技术试验卫星,是亚马逊挑战SpaceX星链市场主导地位、搭建全球低轨卫星互联网的组成部分。 该卫星运行于近地轨道,旨在验证卫星互联网通信技术,为后续大规模组网积累经验。作为柯伊伯星座早期部署阶段的卫星,它承载着推进全球高速卫星互联网覆盖的战略目标,推动全球卫星互联网产业竞争与发展。目前该卫星处于在轨运行状态。

Basic Information
目录编号:
68941
目录名称:
KUIPER-00439
国际标识:
2026-098Y
轨道中心:
EARTH
卫星名称:
KUIPER-00439
卫星全名:
KUIPER-00439
卫星状态:
在轨 (已飞行25 天)
发射日期:
2026-04-30 UTC
国别 :
美国 (US)
星等 :
--
Orbit Information
数据来源 国际轨道数据 AOE轨道数据
星历时间 2026-05-24T03:48:11+0800
1天前
查看轨道信息
2026-05-24T02:00:00+0800
1天前
查看轨道信息
半长轴 6842.422km 6842.437km
偏心率 0.0007463 0.0005522
轨道倾角 51.877° 51.875°
近地点辐角 66.938° 60.449°
升交点赤经 185.228° 185.596°
平近点角 293.239° 244.580°
近地点 459.178km 460.521km
远地点 469.392km 468.079km
周期 93.880分钟 93.881分钟
每日圈数 15.338682 15.33863
Detailed Information
使用方式:
暂无
2D Orbit Map
3D Orbit Map
Orbit Altitude Analysis Chart
Orbit Inclination Analysis Chart
Orbit Comprehensive Analysis Chart
View Comprehensive Chart